Location: Boiro
(42.6475°N, 8.8834°W)
Time: 00:22:31
(UTC+01:00)

Tiros 1 - Pass Details

Date: 05 December 2021
Orbit: 629 x 664 km, 48.4° (Epoch: 26 January)

Event Time Altitude Azimuth Distance (km) Brightness Sun altitude
Rises 20:08:58 0° 246° (WSW) 2,912 11.9 -22.6°
Reaches altitude 10° 20:11:16 10° 248° (WSW) 2,010 10.7 -23.0°
Maximum altitude 20:15:54 80° 336° (NNW) 651 7.0 -23.9°
Enters shadow 20:16:10 76° 19° (NNE) 660 7.0 -23.9°
